AirNav   Everest Fuels
 
 655 users online  

MO63 St Luke's Northland Hospital Heliport
Kansas City, Missouri, USA

GOING TO KANSAS CITY?


FAA INFORMATION EFFECTIVE 21 MAY 2020

Location

FAA Identifier: MO63
Lat/Long: 39-14-54.5100N 094-38-51.1800W
39-14.908500N 094-38.853000W
39.2484750,-94.6475500
(estimated)
Elevation: 1061 ft. / 323 m (estimated)
Variation: 05E (1985)
From city: 12 miles N of KANSAS CITY, MO
Time zone: UTC -5 (UTC -6 during Standard Time)
Zip code: 64154

Heliport Operations

Heliport use: Private use, MEDICAL USE.
Activation date: 08/1989
Control tower: no
ARTCC: KANSAS CITY CENTER
FSS: COLUMBIA FLIGHT SERVICE STATION
Attendance: CONTINUOUS
Wind indicator: yes
Segmented circle: no
Lights: FOR PERIMETER LGTS CALL 816-891-6000.

Heliport Communications

WX ASOS at MCI (4 nm NW): PHONE 816-329-2808
WX ASOS at MKC (8 nm S): PHONE 816-329-2843
WX AWOS-3 at GPH (16 nm E): 120.275 (816-407-3399)

Nearby radio navigation aids

VOR radial/distance  VOR name  Freq  Var
MCIr113/4.7KANSAS CITY VORTAC113.2505E
ANXr284/25.8NAPOLEON VORTAC114.0007E

 
NDB name  Hdg/Dist  Freq  Var  ID
AMAZON158/40.023304EAZN .- --.. -.

Heliport Services

Runway Information

Helipad H1

Dimensions: 40 x 40 ft. / 12 x 12 m
Surface: concrete
Runway edge lights: PERI
Latitude: 39-14.908500N
Longitude: 094-38.853000W
Elevation: 1061.0 ft.
Traffic pattern: leftleft

Heliport Ownership and Management from official FAA records

Ownership: Privately-owned
Owner: ST LUKE'S NORTH
5830 NW BARRY ROAD
KANSAS CITY, MO 64154
Phone 816-891-6000
Manager: MITCH LEWIS
5830 NW BARRY ROAD
KANSAS CITY, MO 64154
Phone (816) 880-6018
DOUG BRENSING, 816-880-6540

Additional Remarks

FOR CD CTC KANSAS CITY APCH AT 816-329-2710.

Instrument Procedures

There are no published instrument procedures at MO63.

Some nearby airports with instrument procedures:

KMCI - Kansas City International Airport (4 nm NW)
KMKC - Charles B Wheeler Downtown Airport (8 nm S)
KFLV - Sherman Army Airfield (14 nm NW)
KGPH - Midwest National Air Center Airport (16 nm E)
3EX - Excelsior Springs Memorial Airport (22 nm E)
 
Loc | Ops | Rwys | IFR | FBO | Links
Com | Nav | Svcs | Stats | Notes
Area around MO63 (St Luke's Northland Hospital Heliport)
 
Road maps at: MapQuest Bing Google
 
Aerial photo
No photo
 
Sectional chart

 
Airport distance calculator
Flying to St Luke's Northland Hospital Heliport? Find the distance to fly.

From to MO63

Sunrise and sunset
Times for 04-Jun-2020
 Local
(UTC-5)
 Zulu
(UTC)
Morning civil twilight05:2210:22
Sunrise05:5410:54
Sunset20:4001:40
Evening civil twilight21:1202:12

Current date and time
Zulu (UTC)  05-Jun-2020 04:30:27
Local (UTC-5)  04-Jun-2020 23:30:27
 
METAR
KMCI 
5nm NW 
050353Z 17006KT 10SM FEW130 23/22 A2980 RMK AO2 SLP081 T02330217 $
KMKC 
8nm S 
050354Z 18005KT 10SM CLR 28/21 A2979 RMK AO2 SLP077 T02780211
KGPH 
16nm E 
050415Z AUTO 00000KT 10SM CLR 25/21 A2981 RMK AO2
TAF
KMCI 
5nm NW 
041730Z 0418/0518 22007KT P6SM SCT170 FM050100 17008KT P6SM FEW250
KMKC 
8nm S 
041730Z 0418/0518 20005KT P6SM SKC FM050100 17005KT P6SM FEW250
NOTAMs
Click for the latest NOTAMs
NOTAMs are issued by the DoD/FAA and will open in a separate window not controlled by AirNav.

 

 
 

Would you like to see your business listed on this page?

 If your business provides an interesting product or service to pilots, flight crews, aircraft, or users of the St Luke's Northland Hospital Heliport, you should consider listing it here.  To start the listing process, click on the button below
 
Add a business
 

Other Pages about St Luke's Northland Hospital Heliport

Update a link
 
Copyright © AirNav, LLC. All rights reserved. Privacy Policy  Contact